星链-1235 (STARLINK-1235 )

导读 | 星芒AI

STARLINK-1235 是 SpaceX Starlink 卫星互联网项目中的一颗低轨通信卫星。它属于 Starlink 任务中发射的多个批次之一,旨在为全球用户提供高速互联网服务。该卫星运行在约 550 公里的轨道高度,采用先进的推进系统和激光通信技术,以提高网络效率和减少延迟。STARLINK-1235 与其他 Starlink 卫星协同工作,支持偏远地区的宽带接入,并增强整体星座的覆盖能力与稳定性。

基本信息
目录编号:
45232
目录名称:
STARLINK-1235
国际标识:
2020-012BG
轨道中心:
EARTH
卫星名称:
星链-1235
卫星全名:
星链-1235 (STARLINK-1235 )
卫星状态:
已陨落 最后检测时间 2025-04-10
发射日期:
2020-02-17 UTC
国别 :
美国 (US)
星等 :
--
轨道信息
数据来源 国际轨道数据
星历时间: 2025-04-11T01:34:22+0800
轨道信息已过期201天
半长轴: 6525.517km
偏心率: 0.000578
轨道倾角: 53.014°
近地点辐角 262.630°
升交点赤经 312.562°
平近点角 144.657°
近地点: 143.61km
远地点: 151.154km
周期: 87.434分钟
每日圈数: 16.469502
详细信息
固有亮度:
5
最大亮度:
2.5
卫星平台:
Starlink V1.0
覆盖范围:
全球
运营商:
太空探索技术公司
运营商所在国:
美国
制造商(研发单位):
太空探索技术公司
制造商所在国:
美国
使用方式:
暂无
卫星简介
星链(Starlink)计划是由太空探索技术公司(SpaceX)提出的一个巨型低轨卫星互联网星座项目,计划在2019年至2024年间在太空搭建由约1.2万颗卫星组成的“星链”网络,其中1584颗将部署在地球上空550千米处的近地轨道,并从2020年开始工作。该卫星仍在工作。